When you browse on this site, cookies collect data to enhance your experience and personalize the content and advertising you see.
Visit our Privacy Policy to learn more. By continuing to use the site, you agree to this use of cookies and data.
  • In Czech Republic
  • List of Countries
  • For 7 days
  • Water Temperature
  • Weather Map
  • Weather Widgets
  • user-avatar
    Login

    Hourly Weather Wiktoria

    Today, 25 February, Tuesday

    Time Temperature Precipitation Wind Pressure Humidity
    00:00 +25°C° 0 mm 1 mps 749 mmHg 50%
    01:00 +24°C° 0 mm 1 mps 749 mmHg 53%
    02:00 +23°C° 0 mm 1 mps 749 mmHg 54%
    03:00 +23°C° 0 mm 1 mps 748 mmHg 56%
    04:00 +23°C° 0 mm 1 mps 748 mmHg 57%
    05:00 +23°C° 0 mm 2 mps 748 mmHg 57%
    06:00 +23°C° 0 mm 2 mps 748 mmHg 57%
    07:00 +22°C° 0 mm 3 mps 748 mmHg 58%
    08:00 +26°C° 0 mm 3 mps 748 mmHg 51%
    09:00 +28°C° 0 mm 3 mps 748 mmHg 44%
    10:00 +31°C° 0 mm 3 mps 748 mmHg 36%
    11:00 +33°C° 0 mm 4 mps 747 mmHg 33%
    12:00 +34°C° 0 mm 5 mps 747 mmHg 29%
    13:00 +35°C° 0 mm 6 mps 746 mmHg 26%
    14:00 +35°C° 0 mm 5 mps 745 mmHg 27%
    15:00 +35°C° 0 mm 5 mps 745 mmHg 27%
    16:00 +34°C° 0 mm 3 mps 744 mmHg 30%
    17:00 +33°C° 0 mm 3 mps 744 mmHg 32%
    18:00 +31°C° 0 mm 3 mps 744 mmHg 34%
    19:00 +30°C° 0 mm 2 mps 744 mmHg 36%
    20:00 +29°C° 0.1 mm 2 mps 744 mmHg 39%
    21:00 +28°C° 0.1 mm 2 mps 744 mmHg 43%
    22:00 +27°C° 0.1 mm 2 mps 744 mmHg 47%
    23:00 +25°C° 0 mm 3 mps 744 mmHg 57%

    Tomorrow, 26 February, Wednesday

    Time Temperature Precipitation Wind Pressure Humidity
    00:00 +22°C° 0 mm 3 mps 744 mmHg 66%
    01:00 +20°C° 0 mm 4 mps 744 mmHg 75%
    02:00 +20°C° 0 mm 4 mps 743 mmHg 76%
    03:00 +19°C° 0 mm 4 mps 743 mmHg 76%
    04:00 +19°C° 0 mm 4 mps 743 mmHg 76%
    05:00 +18°C° 0 mm 4 mps 743 mmHg 74%
    06:00 +17°C° 0 mm 5 mps 744 mmHg 72%
    07:00 +16°C° 0 mm 5 mps 744 mmHg 70%
    08:00 +19°C° 0 mm 5 mps 744 mmHg 63%
    09:00 +20°C° 0 mm 6 mps 745 mmHg 56%
    10:00 +21°C° 0 mm 6 mps 745 mmHg 49%
    11:00 +21°C° 0 mm 6 mps 745 mmHg 47%
    12:00 +22°C° 0 mm 7 mps 745 mmHg 46%
    13:00 +22°C° 0 mm 7 mps 745 mmHg 45%
    14:00 +22°C° 0 mm 7 mps 745 mmHg 41%
    15:00 +22°C° 0 mm 7 mps 745 mmHg 37%
    16:00 +23°C° 0 mm 7 mps 744 mmHg 32%
    17:00 +21°C° 0 mm 6 mps 745 mmHg 36%
    18:00 +19°C° 0 mm 6 mps 745 mmHg 39%
    19:00 +17°C° 0 mm 5 mps 746 mmHg 42%
    20:00 +15°C° 0 mm 5 mps 746 mmHg 46%
    21:00 +14°C° 0 mm 5 mps 747 mmHg 50%
    22:00 +13°C° 0 mm 4 mps 748 mmHg 54%
    23:00 +13°C° 0 mm 4 mps 748 mmHg 57%

    Day after tomorrow, 27 February, Thursday

    Time Temperature Precipitation Wind Pressure Humidity
    00:00 +12°C° 0 mm 4 mps 748 mmHg 60%
    01:00 +11°C° 0 mm 3 mps 747 mmHg 63%
    02:00 +10°C° 0 mm 3 mps 747 mmHg 66%
    03:00 +10°C° 0 mm 3 mps 747 mmHg 69%
    04:00 +9°C° 0 mm 3 mps 747 mmHg 72%
    05:00 +9°C° 0 mm 3 mps 747 mmHg 71%
    06:00 +10°C° 0 mm 3 mps 748 mmHg 70%
    07:00 +10°C° 0 mm 3 mps 748 mmHg 69%
    08:00 +12°C° 0 mm 3 mps 748 mmHg 57%
    09:00 +16°C° 0 mm 3 mps 748 mmHg 45%
    10:00 +18°C° 0 mm 4 mps 748 mmHg 32%
    11:00 +20°C° 0 mm 4 mps 747 mmHg 28%
    12:00 +22°C° 0 mm 4 mps 747 mmHg 25%
    13:00 +25°C° 0 mm 4 mps 746 mmHg 21%
    14:00 +25°C° 0 mm 4 mps 746 mmHg 21%
    15:00 +26°C° 0 mm 5 mps 745 mmHg 21%
    16:00 +27°C° 0 mm 5 mps 744 mmHg 21%
    17:00 +25°C° 0 mm 4 mps 745 mmHg 25%
    18:00 +22°C° 0 mm 4 mps 745 mmHg 29%
    19:00 +21°C° 0 mm 3 mps 745 mmHg 32%
    20:00 +20°C° 0 mm 3 mps 746 mmHg 40%
    21:00 +18°C° 0 mm 4 mps 746 mmHg 47%
    22:00 +17°C° 0 mm 4 mps 747 mmHg 55%
    23:00 +16°C° 0 mm 3 mps 747 mmHg 60%

    28 February, Friday

    Time Temperature Precipitation Wind Pressure Humidity
    00:00 +14°C° 0 mm 3 mps 747 mmHg 66%
    01:00 +13°C° 0 mm 3 mps 747 mmHg 71%
    02:00 +13°C° 0 mm 3 mps 747 mmHg 73%
    03:00 +12°C° 0 mm 3 mps 747 mmHg 76%
    04:00 +12°C° 0 mm 3 mps 747 mmHg 78%
    05:00 +12°C° 0 mm 3 mps 747 mmHg 78%
    06:00 +13°C° 0 mm 3 mps 748 mmHg 78%
    07:00 +13°C° 0 mm 4 mps 748 mmHg 78%
    08:00 +15°C° 0 mm 4 mps 749 mmHg 67%
    09:00 +17°C° 0 mm 5 mps 749 mmHg 57%
    10:00 +20°C° 0 mm 6 mps 749 mmHg 47%
    11:00 +21°C° 0 mm 5 mps 749 mmHg 43%
    12:00 +23°C° 0 mm 5 mps 748 mmHg 39%
    13:00 +25°C° 0 mm 5 mps 748 mmHg 36%
    14:00 +24°C° 0 mm 6 mps 748 mmHg 36%
    15:00 +24°C° 0 mm 6 mps 747 mmHg 37%
    16:00 +24°C° 0 mm 6 mps 747 mmHg 38%
    17:00 +22°C° 0 mm 6 mps 747 mmHg 42%
    18:00 +21°C° 0 mm 6 mps 747 mmHg 46%
    19:00 +18°C° 0 mm 7 mps 748 mmHg 50%
    20:00 +17°C° 0 mm 6 mps 748 mmHg 54%
    21:00 +16°C° 0 mm 6 mps 749 mmHg 59%
    22:00 +14°C° 0 mm 5 mps 749 mmHg 64%
    23:00 +14°C° 0 mm 4 mps 749 mmHg 67%

    29 February, Saturday

    Time Temperature Precipitation Wind Pressure Humidity
    00:00 +13°C° 0 mm 4 mps 749 mmHg 69%
    01:00 +13°C° 0 mm 3 mps 749 mmHg 72%
    02:00 +12°C° 0 mm 3 mps 749 mmHg 74%
    03:00 +12°C° 0 mm 3 mps 749 mmHg 76%
    04:00 +13°C° 0 mm 2 mps 750 mmHg 78%
    05:00 +12°C° 0 mm 3 mps 750 mmHg 76%
    06:00 +12°C° 0 mm 3 mps 750 mmHg 74%
    07:00 +13°C° 0 mm 3 mps 750 mmHg 72%
    08:00 +17°C° 0 mm 3 mps 750 mmHg 64%
    09:00 +19°C° 0 mm 3 mps 750 mmHg 55%
    10:00 +22°C° 0 mm 3 mps 750 mmHg 47%
    11:00 +25°C° 0 mm 2 mps 750 mmHg 42%
    12:00 +26°C° 0 mm 2 mps 749 mmHg 37%
    13:00 +28°C° 0 mm 1 mps 749 mmHg 31%
    14:00 +29°C° 0 mm 1 mps 748 mmHg 30%
    15:00 +29°C° 0 mm 1 mps 747 mmHg 29%
    16:00 +30°C° 0 mm 1 mps 747 mmHg 27%
    17:00 +28°C° 0 mm 2 mps 747 mmHg 33%
    18:00 +26°C° 0 mm 3 mps 747 mmHg 39%
    19:00 +23°C° 0 mm 4 mps 747 mmHg 45%
    20:00 +22°C° 0 mm 4 mps 748 mmHg 53%
    21:00 +20°C° 0 mm 4 mps 748 mmHg 61%
    22:00 +18°C° 0 mm 4 mps 748 mmHg 70%
    23:00 +18°C° 0 mm 4 mps 748 mmHg 72%

    1 March, Sunday

    Time Temperature Precipitation Wind Pressure Humidity
    00:00 +17°C° 0 mm 3 mps 748 mmHg 74%
    01:00 +17°C° 0 mm 3 mps 748 mmHg 77%
    02:00 +16°C° 0 mm 3 mps 747 mmHg 78%
    03:00 +16°C° 0 mm 3 mps 747 mmHg 80%
    04:00 +15°C° 0 mm 2 mps 747 mmHg 82%
    05:00 +16°C° 0 mm 2 mps 747 mmHg 80%
    06:00 +16°C° 0 mm 2 mps 747 mmHg 79%
    07:00 +16°C° 0 mm 2 mps 748 mmHg 77%
    08:00 +20°C° 0 mm 1 mps 748 mmHg 67%
    09:00 +22°C° 0 mm 1 mps 748 mmHg 57%
    10:00 +25°C° 0 mm 1 mps 748 mmHg 46%
    11:00 +26°C° 0 mm 1 mps 747 mmHg 43%
    12:00 +27°C° 0 mm 2 mps 747 mmHg 40%
    13:00 +28°C° 0 mm 2 mps 747 mmHg 36%
    14:00 +28°C° 0 mm 3 mps 746 mmHg 36%
    15:00 +28°C° 0 mm 5 mps 746 mmHg 36%
    16:00 +28°C° 0 mm 6 mps 746 mmHg 36%
    17:00 +26°C° 0 mm 6 mps 746 mmHg 44%
    18:00 +23°C° 0 mm 6 mps 746 mmHg 52%
    19:00 +20°C° 0 mm 6 mps 747 mmHg 60%
    20:00 +20°C° 0 mm 6 mps 747 mmHg 62%
    21:00 +19°C° 0 mm 5 mps 747 mmHg 64%
    22:00 +17°C° 0 mm 5 mps 748 mmHg 67%
    23:00 +16°C° 0 mm 5 mps 748 mmHg 70%
    Show more